RH
55 63 62 58 61 67 72 74 72 66 63 62 52 36 23 20 29 37 41 39 47 60 84 89 85 98 94 87 81 71 64 61 56 52 51 50 49 49 48 42 34 29 24 22
52 61 58 61 61 61 67 71 68 62 63 60 55 45 32 25 26 29 38 40 42 53 70 86 77 91 96 85 79 72 64 62 58 55 50 48 48 49 52 50 40 30 24 21
51 49 56 61 65 63 60 65 69 67 65 63 55 44 38 25 22 22 29 36 39 45 53 72 76 75 87 87 84 73 65 61 58 54 48 48 51 50 50 50 44 33 25 22
48 47 51 60 63 63 63 55 61 65 69 74 61 63 41 35 25 25 29 39 39 42 49 61 62 77 96 89 87 79 71 65 57 52 50 57 48 51 49 45 42 37 29 23
46 48 51 57 60 60 62 54 57 61 67 68 63 72 42 33 30 20 25 29 28 30 33 50 52 61 84 80 89 82 76 65 55 51 54 53 53 51 49 43 44 41 31 24
43 45 49 51 55 60 61 58 56 59 66 74 61 71 44 38 28 25 24 30 31 30 35 48 57 65 72 80 84 79 78 64 59 55 57 55 54 50 47 43 47 42 29 25
48 47 48 51 56 60 62 69 76 72 78 69 61 69 39 36 36 31 27 31 29 28 26 39 61 68 76 79 77 76 78 77 66 63 63 57 57 51 44 45 45 37 29 25
60 49 52 51 51 54 61 68 79 80 80 75 65 63 47 40 37 33 30 28 29 31 28 35 47 53 63 69 73 81 77 76 73 73 66 59 61 55 55 51 43 34 30 27
58 56 50 52 53 53 57 67 70 84 79 85 68 55 47 42 41 38 35 32 30 31 33 31 41 54 55 63 63 64 70 77 75 73 70 65 59 58 56 55 49 39 33 30
44 52 52 52 55 57 59 58 71 83 87 85 67 59 58 48 44 41 38 36 35 35 37 40 40 42 46 56 62 67 71 73 78 76 68 63 59 57 57 52 44 38 34 30
44 48 53 55 55 57 65 67 63 71 78 82 78 61 52 50 44 42 36 32 35 33 38 42 43 44 50 54 61 70 73 77 77 70 63 64 62 59 60 50 40 38 35 30
40 51 60 54 45 46 52 59 61 71 66 69 71 57 49 50 50 41 39 36 37 36 34 44 47 53 53 55 60 66 70 72 69 62 65 65 65 61 61 54 50 46 41 34
39 49 59 54 51 50 57 59 61 60 66 64 74 56 43 47 48 44 41 39 40 40 40 42 47 51 57 64 64 66 68 68 69 71 67 65 64 61 60 56 49 48 44 40
42 47 46 51 47 52 53 51 59 67 72 60 54 43 43 46 52 49 47 44 40 40 36 36 36 41 53 61 66 66 69 75 79 74 68 66 65 62 61 57 53 52 49 40
46 52 49 47 51 49 51 48 48 59 56 68 39 43 33 39 49 51 52 46 41 39 39 37 34 32 33 42 52 62 65 66 68 66 63 65 65 59 59 56 57 56 50 40
50 51 48 51 43 53 59 51 43 44 51 58 49 40 33 33 33 38 49 44 42 38 38 37 36 34 31 30 36 41 48 58 62 62 60 61 60 61 61 58 56 57 52 40
54 53 48 54 42 44 56 49 51 48 40 45 55 38 37 33 32 32 35 39 39 38 34 32 36 38 37 34 33 34 37 38 43 48 49 54 59 59 64 62 59 55 49 39
58 56 54 56 46 55 42 39 44 49 52 42 43 40 42 41 33 29 29 31 31 31 30 31 33 33 35 37 39 39 40 42 43 44 47 53 56 61 61 61 57 65 43 37
57 59 63 63 61 50 48 43 45 52 49 44 41 40 43 46 41 38 31 31 29 28 28 29 29 31 31 32 34 36 39 37 39 43 47 52 56 61 62 64 65 46 41 34
62 69 71 72 75 66 50 45 49 52 53 49 48 41 43 45 50 48 39 37 34 33 31 30 30 30 30 30 30 31 34 35 36 37 42 51 56 60 63 52 47 40 35 33
74 75 81 77 78 64 55 56 55 56 55 53 50 50 47 47 49 50 52 45 44 41 38 36 34 33 33 33 34 34 31 29 31 35 37 41 44 44 43 42 39 37 35 34
67 72 74 79 85 81 61 62 62 62 62 60 57 54 53 51 52 53 56 59 57 52 50 48 46 43 40 39 38 36 36 36 37 36 35 37 40 42 42 42 42 40 39 39
76 70 74 74 75 73 74 74 75 71 67 66 62 59 56 57 59 60 60 59 58 58 59 56 55 54 54 53 52 51 48 47 46 45 45 46 49 50 51 51 51 50 51 52
93 88 93 87 88 85 82 81 80 77 74 72 70 68 65 63 62 62 62 64 64 63 63 63 64 64 63 60 58 56 56 55 56 56 56 57 59 62 65 65 64 63 63 63
95 95 97 98 96 94 94 93 87 83 79 78 77 76 76 74 73 72 72 71 70 69 69 69 68 67 67 66 65 65 63 64 64 64 64 65 66 67 69 70 72 73 74 74
94 94 95 93 93 94 97 96 94 91 90 89 86 86 85 84 83 83 83 83 82 80 78 77 77 75 72 71 71 70 69 69 69 70 70 71 72 75 78 80 80 80 80 79